QPF
0.02 0.04 0.11 0.10 0.09 0.07 0.07 0.08 0.05 0.03 0.04 0.04 0.04 0.06 0.06 0.04 0.02 0.02 0.02 0.02 0.04 0.04 0.05 0.06 0.04 0.04 0.05 0.04 0.03 0.03 0.04 0.04 0.03 0.04 0.05 0.05 0.06 0.08 0.09 0.09 0.07 0.08 0.10
0.02 0.05 0.11 0.10 0.08 0.06 0.04 0.03 0.03 0.03 0.03 0.03 0.04 0.06 0.06 0.04 0.03 0.02 0.02 0.02 0.04 0.04 0.03 0.04 0.05 0.04 0.05 0.04 0.03 0.03 0.03 0.02 0.03 0.03 0.03 0.04 0.05 0.07 0.08 0.08 0.06 0.08 0.09
0.02 0.05 0.09 0.10 0.08 0.06 0.03 0.03 0.03 0.03 0.03 0.04 0.04 0.05 0.06 0.04 0.03 0.02 0.03 0.03 0.04 0.04 0.03 0.04 0.04 0.04 0.04 0.04 0.03 0.02 0.01 0.02 0.02 0.03 0.03 0.05 0.04 0.06 0.09 0.09 0.08 0.09 0.09
0.02 0.04 0.05 0.08 0.06 0.04 0.03 0.04 0.05 0.04 0.04 0.04 0.05 0.05 0.07 0.07 0.06 0.06 0.06 0.05 0.05 0.04 0.04 0.04 0.04 0.04 0.02 0.02 0.02 0.01 0.01 0.03 0.02 0.02 0.02 0.03 0.04 0.05 0.07 0.08 0.09 0.12 0.12
0.02 0.03 0.05 0.08 0.06 0.04 0.02 0.03 0.05 0.05 0.04 0.05 0.05 0.03 0.06 0.08 0.06 0.05 0.06 0.07 0.06 0.06 0.06 0.03 0.02 0.02 0.02 0.02 0.02 0.01 0.01 0.01 0.01 0.01 0.02 0.03 0.05 0.06 0.06 0.07 0.08 0.10 0.12
0.02 0.02 0.03 0.07 0.05 0.03 0.02 0.02 0.03 0.04 0.04 0.06 0.04 0.03 0.05 0.06 0.06 0.06 0.06 0.07 0.07 0.06 0.05 0.03 0.02 0.03 0.03 0.02 0.03 0.02 0.01 0.01 0.01 0.01 0.01 0.02 0.05 0.06 0.05 0.07 0.08 0.09 0.11
0.03 0.02 0.03 0.05 0.04 0.03 0.03 0.04 0.05 0.05 0.06 0.07 0.06 0.04 0.05 0.07 0.07 0.07 0.06 0.06 0.05 0.06 0.05 0.05 0.03 0.03 0.03 0.02 0.03 0.02 0.01 0.01 0.01 0.01 0.01 0.03 0.05 0.06 0.06 0.07 0.08 0.08 0.09
0.02 0.01 0.02 0.06 0.06 0.05 0.05 0.07 0.07 0.07 0.07 0.08 0.07 0.05 0.05 0.06 0.07 0.07 0.06 0.05 0.04 0.04 0.05 0.04 0.04 0.03 0.02 0.03 0.02 0.02 0.01 0.00 0.00 0.00 0.01 0.03 0.04 0.06 0.06 0.05 0.07 0.07 0.10
0.03 0.03 0.03 0.06 0.07 0.09 0.08 0.09 0.10 0.09 0.08 0.07 0.05 0.04 0.04 0.04 0.04 0.05 0.05 0.05 0.04 0.04 0.05 0.03 0.04 0.04 0.02 0.03 0.03 0.03 0.02 0.00 0.00 0.00 0.01 0.03 0.05 0.07 0.05 0.05 0.05 0.05 0.08
0.06 0.08 0.06 0.06 0.06 0.07 0.11 0.12 0.12 0.10 0.07 0.05 0.04 0.03 0.03 0.03 0.03 0.03 0.03 0.04 0.03 0.03 0.03 0.03 0.03 0.04 0.03 0.03 0.03 0.03 0.02 0.01 0.01 0.01 0.02 0.03 0.06 0.09 0.06 0.06 0.05 0.05 0.07
0.03 0.05 0.07 0.08 0.06 0.05 0.08 0.11 0.12 0.10 0.08 0.05 0.03 0.02 0.02 0.02 0.02 0.02 0.03 0.04 0.05 0.04 0.04 0.04 0.03 0.03 0.03 0.02 0.03 0.02 0.01 0.01 0.01 0.02 0.04 0.05 0.07 0.08 0.06 0.04 0.04 0.04 0.05
0.01 0.01 0.03 0.05 0.06 0.04 0.04 0.05 0.05 0.04 0.04 0.03 0.01 0.01 0.01 0.01 0.01 0.01 0.02 0.04 0.05 0.05 0.04 0.03 0.03 0.02 0.02 0.01 0.01 0.01 0.01 0.02 0.02 0.03 0.06 0.08 0.09 0.10 0.08 0.06 0.04 0.04 0.04
0.01 0.02 0.03 0.05 0.07 0.05 0.04 0.03 0.02 0.03 0.03 0.02 0.01 0.00 0.00 0.00 0.01 0.00 0.01 0.01 0.02 0.03 0.03 0.02 0.02 0.02 0.01 0.01 0.01 0.01 0.01 0.01 0.01 0.02 0.07 0.10 0.11 0.10 0.10 0.07 0.05 0.03 0.04
0.01 0.02 0.03 0.03 0.05 0.07 0.06 0.04 0.02 0.02 0.02 0.02 0.00 0.00 0.00 0.01 0.00 0.00 0.01 0.01 0.01 0.02 0.02 0.02 0.02 0.01 0.01 0.01 0.01 0.00 0.01 0.01 0.01 0.03 0.06 0.11 0.12 0.11 0.11 0.10 0.08 0.05 0.04
0.01 0.01 0.01 0.02 0.03 0.05 0.05 0.04 0.03 0.02 0.01 0.01 0.01 0.00 0.00 0.01 0.01 0.00 0.00 0.00 0.00 0.01 0.01 0.02 0.02 0.01 0.01 0.01 0.00 0.01 0.01 0.01 0.01 0.02 0.04 0.07 0.09 0.11 0.12 0.12 0.11 0.09 0.08
0.02 0.01 0.01 0.02 0.05 0.07 0.05 0.04 0.03 0.01 0.01 0.00 0.00 0.00 0.00 0.00 0.00 0.01 0.01 0.01 0.01 0.01 0.02 0.02 0.02 0.02 0.02 0.02 0.01 0.01 0.01 0.01 0.00 0.01 0.02 0.02 0.03 0.06 0.07 0.09 0.11 0.09 0.07
0.02 0.02 0.02 0.04 0.06 0.06 0.04 0.02 0.01 0.01 0.01 0.01 0.01 0.00 0.00 0.00 0.00 0.01 0.01 0.01 0.01 0.01 0.02 0.03 0.03 0.02 0.02 0.01 0.01 0.01 0.01 0.01 0.01 0.01 0.01 0.02 0.03 0.05 0.06 0.07 0.07 0.07 0.07
0.02 0.04 0.04 0.06 0.07 0.05 0.03 0.02 0.01 0.01 0.00 0.00 0.01 0.00 0.00 0.00 0.00 0.01 0.01 0.01 0.01 0.01 0.02 0.03 0.04 0.02 0.01 0.01 0.01 0.02 0.02 0.01 0.01 0.01 0.01 0.02 0.03 0.03 0.03 0.03 0.03 0.04 0.05
0.02 0.02 0.02 0.04 0.05 0.07 0.05 0.02 0.02 0.01 0.00 0.00 0.00 0.00 0.01 0.00 0.00 0.00 0.00 0.00 0.01 0.01 0.02 0.03 0.03 0.02 0.02 0.04 0.02 0.02 0.03 0.02 0.01 0.01 0.00 0.01 0.03 0.02 0.02 0.01 0.01 0.02 0.02
0.01 0.01 0.01 0.01 0.01 0.02 0.02 0.01 0.01 0.01 0.00 0.00 0.00 0.00 0.00 0.00 0.00 0.00 0.00 0.01 0.01 0.01 0.02 0.02 0.02 0.02 0.03 0.04 0.03 0.02 0.02 0.01 0.00 0.00 0.00 0.00 0.01 0.01 0.01 0.00 0.01 0.01 0.01
0.01 0.01 0.01 0.00 0.01 0.01 0.01 0.01 0.00 0.01 0.01 0.01 0.00 0.00 0.00 0.00 0.00 0.00 0.00 0.01 0.01 0.01 0.01 0.02 0.01 0.02 0.03 0.03 0.03 0.03 0.01 0.01 0.01 0.00 0.00 0.00 0.00 0.00 0.00 0.00 0.00 0.00 0.00
0.01 0.01 0.01 0.00 0.00 0.00 0.00 0.00 0.00 0.01 0.01 0.01 0.00 0.00 0.00 0.00 0.00 0.00 0.00 0.01 0.01 0.01 0.01 0.01 0.01 0.02 0.02 0.03 0.03 0.02 0.02 0.01 0.01 0.00 0.00 0.00 0.00 0.00 0.01 0.00 0.00 0.00 0.00
0.00 0.01 0.01 0.01 0.00 0.01 0.00 0.01 0.01 0.00 0.00 0.01 0.01 0.00 0.00 0.00 0.00 0.00 0.00 0.01 0.01 0.01 0.02 0.02 0.03 0.04 0.04 0.04 0.03 0.01 0.01 0.01 0.01 0.00 0.00 0.00 0.00 0.00 0.01 0.00 0.01 0.01 0.00
0.00 0.01 0.01 0.01 0.01 0.01 0.01 0.00 0.00 0.00 0.01 0.01 0.00 0.00 0.00 0.00 0.00 0.01 0.01 0.01 0.02 0.02 0.02 0.02 0.04 0.04 0.04 0.04 0.03 0.01 0.00 0.00 0.01 0.01 0.00 0.01 0.01 0.00 0.00 0.01 0.01 0.01 0.01
0.00 0.01 0.01 0.01 0.01 0.01 0.00 0.00 0.00 0.00 0.00 0.00 0.00 0.00 0.00 0.00 0.00 0.01 0.00 0.01 0.01 0.01 0.01 0.01 0.03 0.05 0.06 0.04 0.03 0.02 0.00 0.00 0.00 0.01 0.01 0.01 0.01 0.00 0.00 0.00 0.01 0.01 0.02
0.00 0.01 0.01 0.01 0.01 0.01 0.00 0.00 0.00 0.00 0.00 0.00 0.00 0.00 0.01 0.00 0.00 0.01 0.00 0.01 0.01 0.01 0.01 0.02 0.02 0.03 0.06 0.05 0.03 0.01 0.01 0.01 0.01 0.01 0.01 0.01 0.01 0.00 0.00 0.00 0.00 0.01 0.02
MSLP
1018.32 1017.72 1017.09 1016.53 1016.09 1015.78 1015.57 1015.43 1015.31 1015.18 1015.01 1014.81 1014.61 1014.43 1014.30 1014.23 1014.20 1014.19 1014.16 1014.09 1013.96 1013.79 1013.59 1013.39 1013.23 1013.12 1013.06 1013.02 1012.95 1012.83 1012.59 1012.25 1011.80 1011.28 1010.76 1010.29 1009.92 1009.70 1009.62 1009.70 1009.89 1010.17 1010.50
1018.43 1017.75 1017.10 1016.55 1016.14 1015.87 1015.71 1015.61 1015.51 1015.38 1015.20 1015.00 1014.79 1014.61 1014.49 1014.43 1014.40 1014.39 1014.35 1014.26 1014.11 1013.91 1013.69 1013.49 1013.34 1013.24 1013.19 1013.16 1013.10 1012.95 1012.70 1012.31 1011.83 1011.27 1010.71 1010.21 1009.83 1009.60 1009.53 1009.62 1009.84 1010.15 1010.51
1018.45 1017.74 1017.09 1016.58 1016.23 1016.02 1015.91 1015.84 1015.76 1015.63 1015.45 1015.23 1015.02 1014.83 1014.71 1014.65 1014.62 1014.59 1014.53 1014.41 1014.23 1014.02 1013.79 1013.59 1013.46 1013.38 1013.36 1013.34 1013.28 1013.13 1012.86 1012.46 1011.95 1011.37 1010.80 1010.30 1009.91 1009.68 1009.63 1009.73 1009.96 1010.30 1010.68
1018.41 1017.71 1017.11 1016.67 1016.40 1016.26 1016.21 1016.17 1016.09 1015.95 1015.75 1015.51 1015.28 1015.09 1014.96 1014.89 1014.85 1014.80 1014.72 1014.59 1014.39 1014.17 1013.95 1013.76 1013.65 1013.60 1013.60 1013.60 1013.55 1013.41 1013.13 1012.72 1012.21 1011.64 1011.08 1010.59 1010.23 1010.02 1009.97 1010.09 1010.33 1010.66 1011.05
1018.34 1017.70 1017.19 1016.85 1016.66 1016.60 1016.59 1016.56 1016.47 1016.31 1016.07 1015.81 1015.56 1015.36 1015.23 1015.15 1015.11 1015.05 1014.96 1014.82 1014.62 1014.40 1014.20 1014.04 1013.95 1013.93 1013.96 1013.97 1013.93 1013.79 1013.51 1013.12 1012.62 1012.08 1011.56 1011.11 1010.78 1010.60 1010.58 1010.70 1010.93 1011.25 1011.62
1018.27 1017.72 1017.32 1017.09 1017.00 1017.00 1017.01 1016.98 1016.86 1016.66 1016.39 1016.09 1015.83 1015.62 1015.49 1015.42 1015.38 1015.34 1015.26 1015.12 1014.94 1014.74 1014.56 1014.43 1014.37 1014.37 1014.41 1014.43 1014.38 1014.24 1013.98 1013.61 1013.15 1012.67 1012.20 1011.82 1011.55 1011.41 1011.41 1011.53 1011.74 1012.02 1012.34
1018.22 1017.78 1017.49 1017.37 1017.36 1017.40 1017.42 1017.36 1017.20 1016.95 1016.64 1016.32 1016.04 1015.84 1015.73 1015.68 1015.67 1015.65 1015.59 1015.48 1015.33 1015.17 1015.02 1014.91 1014.87 1014.87 1014.90 1014.91 1014.86 1014.71 1014.46 1014.13 1013.73 1013.32 1012.95 1012.65 1012.45 1012.37 1012.39 1012.49 1012.67 1012.89 1013.14
1018.21 1017.87 1017.69 1017.65 1017.70 1017.75 1017.75 1017.66 1017.45 1017.15 1016.81 1016.47 1016.20 1016.02 1015.93 1015.91 1015.94 1015.96 1015.94 1015.87 1015.75 1015.62 1015.50 1015.41 1015.37 1015.36 1015.36 1015.35 1015.27 1015.12 1014.89 1014.60 1014.27 1013.96 1013.69 1013.50 1013.39 1013.36 1013.41 1013.50 1013.63 1013.78 1013.94
1018.26 1018.01 1017.90 1017.91 1017.97 1018.01 1017.99 1017.85 1017.60 1017.27 1016.90 1016.57 1016.31 1016.15 1016.10 1016.13 1016.19 1016.25 1016.27 1016.23 1016.15 1016.04 1015.94 1015.86 1015.80 1015.77 1015.74 1015.68 1015.57 1015.41 1015.20 1014.96 1014.72 1014.52 1014.37 1014.29 1014.27 1014.31 1014.38 1014.46 1014.53 1014.60 1014.66
1018.39 1018.19 1018.12 1018.14 1018.19 1018.20 1018.14 1017.95 1017.67 1017.32 1016.96 1016.64 1016.41 1016.29 1016.28 1016.34 1016.43 1016.51 1016.55 1016.54 1016.48 1016.39 1016.30 1016.20 1016.13 1016.06 1015.98 1015.88 1015.75 1015.58 1015.40 1015.22 1015.07 1014.97 1014.94 1014.97 1015.05 1015.14 1015.23 1015.29 1015.31 1015.31 1015.27
1018.61 1018.43 1018.37 1018.37 1018.39 1018.36 1018.25 1018.04 1017.74 1017.39 1017.05 1016.76 1016.57 1016.48 1016.48 1016.56 1016.66 1016.74 1016.79 1016.78 1016.73 1016.65 1016.55 1016.45 1016.35 1016.25 1016.13 1015.99 1015.84 1015.67 1015.51 1015.39 1015.33 1015.34 1015.42 1015.55 1015.70 1015.84 1015.94 1015.99 1015.97 1015.90 1015.79
1018.93 1018.75 1018.67 1018.64 1018.61 1018.54 1018.39 1018.17 1017.87 1017.55 1017.24 1016.99 1016.82 1016.75 1016.76 1016.82 1016.90 1016.97 1016.99 1016.98 1016.92 1016.83 1016.73 1016.62 1016.51 1016.38 1016.24 1016.08 1015.91 1015.76 1015.64 1015.58 1015.59 1015.69 1015.86 1016.06 1016.27 1016.44 1016.55 1016.57 1016.52 1016.40 1016.24
1019.34 1019.15 1019.04 1018.97 1018.90 1018.79 1018.63 1018.40 1018.12 1017.83 1017.57 1017.35 1017.21 1017.14 1017.13 1017.15 1017.19 1017.20 1017.19 1017.15 1017.08 1016.99 1016.89 1016.78 1016.67 1016.53 1016.38 1016.22 1016.06 1015.93 1015.85 1015.84 1015.92 1016.08 1016.31 1016.56 1016.80 1016.98 1017.08 1017.09 1017.01 1016.87 1016.70
1019.80 1019.62 1019.49 1019.39 1019.28 1019.15 1018.98 1018.76 1018.52 1018.27 1018.04 1017.86 1017.72 1017.64 1017.59 1017.56 1017.53 1017.49 1017.43 1017.35 1017.27 1017.18 1017.09 1016.99 1016.89 1016.77 1016.64 1016.49 1016.36 1016.26 1016.22 1016.25 1016.38 1016.58 1016.84 1017.10 1017.34 1017.51 1017.59 1017.58 1017.49 1017.35 1017.19
1020.30 1020.13 1019.99 1019.87 1019.75 1019.60 1019.44 1019.25 1019.04 1018.84 1018.65 1018.49 1018.35 1018.23 1018.13 1018.04 1017.94 1017.83 1017.72 1017.62 1017.52 1017.44 1017.37 1017.30 1017.22 1017.14 1017.03 1016.92 1016.82 1016.76 1016.75 1016.83 1016.98 1017.20 1017.45 1017.70 1017.91 1018.05 1018.11 1018.08 1017.99 1017.86 1017.73
1020.78 1020.64 1020.51 1020.39 1020.27 1020.13 1019.98 1019.82 1019.66 1019.49 1019.33 1019.18 1019.04 1018.89 1018.74 1018.58 1018.41 1018.25 1018.10 1017.97 1017.87 1017.80 1017.76 1017.72 1017.68 1017.63 1017.56 1017.48 1017.42 1017.40 1017.43 1017.52 1017.68 1017.90 1018.13 1018.35 1018.52 1018.62 1018.64 1018.60 1018.51 1018.41 1018.33
1021.23 1021.13 1021.03 1020.92 1020.81 1020.68 1020.56 1020.43 1020.30 1020.17 1020.04 1019.90 1019.74 1019.57 1019.37 1019.16 1018.95 1018.74 1018.57 1018.43 1018.33 1018.27 1018.25 1018.23 1018.22 1018.20 1018.16 1018.12 1018.09 1018.10 1018.15 1018.26 1018.43 1018.63 1018.83 1019.01 1019.13 1019.19 1019.19 1019.13 1019.05 1018.99 1018.95
1021.63 1021.58 1021.51 1021.42 1021.32 1021.22 1021.12 1021.02 1020.92 1020.83 1020.72 1020.60 1020.44 1020.25 1020.03 1019.79 1019.55 1019.32 1019.13 1018.98 1018.89 1018.84 1018.82 1018.82 1018.82 1018.81 1018.78 1018.76 1018.75 1018.78 1018.85 1018.97 1019.13 1019.32 1019.50 1019.64 1019.73 1019.75 1019.73 1019.67 1019.61 1019.57 1019.58
1022.01 1022.00 1021.96 1021.89 1021.81 1021.72 1021.64 1021.57 1021.51 1021.45 1021.37 1021.27 1021.12 1020.93 1020.71 1020.46 1020.21 1019.98 1019.78 1019.63 1019.54 1019.48 1019.46 1019.45 1019.43 1019.41 1019.38 1019.36 1019.36 1019.39 1019.47 1019.60 1019.76 1019.94 1020.10 1020.22 1020.29 1020.30 1020.27 1020.22 1020.18 1020.17 1020.20
1022.40 1022.41 1022.39 1022.33 1022.27 1022.19 1022.14 1022.09 1022.07 1022.04 1021.99 1021.92 1021.80 1021.63 1021.42 1021.18 1020.94 1020.71 1020.52 1020.38 1020.27 1020.20 1020.15 1020.11 1020.06 1020.01 1019.95 1019.91 1019.91 1019.94 1020.02 1020.15 1020.31 1020.49 1020.64 1020.76 1020.83 1020.85 1020.83 1020.80 1020.78 1020.80 1020.85
1022.82 1022.84 1022.83 1022.78 1022.71 1022.66 1022.62 1022.61 1022.61 1022.63 1022.62 1022.58 1022.50 1022.36 1022.18 1021.97 1021.75 1021.53 1021.35 1021.20 1021.09 1020.99 1020.91 1020.82 1020.73 1020.63 1020.54 1020.47 1020.44 1020.47 1020.55 1020.68 1020.84 1021.01 1021.17 1021.30 1021.38 1021.42 1021.43 1021.44 1021.45 1021.48 1021.54
1023.29 1023.32 1023.30 1023.24 1023.19 1023.14 1023.12 1023.14 1023.18 1023.23 1023.27 1023.28 1023.23 1023.13 1022.99 1022.81 1022.61 1022.43 1022.26 1022.11 1021.98 1021.86 1021.74 1021.62 1021.48 1021.33 1021.20 1021.10 1021.05 1021.06 1021.13 1021.25 1021.41 1021.58 1021.75 1021.88 1021.99 1022.06 1022.10 1022.14 1022.19 1022.24 1022.30
1023.83 1023.84 1023.81 1023.75 1023.69 1023.66 1023.66 1023.71 1023.79 1023.88 1023.96 1024.01 1024.00 1023.94 1023.83 1023.68 1023.52 1023.36 1023.21 1023.07 1022.94 1022.81 1022.67 1022.51 1022.35 1022.17 1022.01 1021.89 1021.81 1021.80 1021.85 1021.95 1022.10 1022.26 1022.41 1022.55 1022.67 1022.76 1022.84 1022.92 1022.99 1023.07 1023.13
1024.40 1024.40 1024.35 1024.29 1024.23 1024.21 1024.24 1024.32 1024.43 1024.56 1024.67 1024.75 1024.78 1024.75 1024.67 1024.56 1024.43 1024.30 1024.18 1024.06 1023.95 1023.83 1023.69 1023.53 1023.35 1023.17 1023.00 1022.86 1022.77 1022.73 1022.75 1022.83 1022.94 1023.06 1023.19 1023.32 1023.43 1023.53 1023.63 1023.73 1023.83 1023.92 1023.99
1024.98 1024.97 1024.92 1024.85 1024.80 1024.80 1024.85 1024.95 1025.09 1025.24 1025.38 1025.48 1025.53 1025.53 1025.48 1025.40 1025.31 1025.21 1025.12 1025.04 1024.96 1024.87 1024.76 1024.62 1024.47 1024.30 1024.14 1024.00 1023.90 1023.84 1023.83 1023.86 1023.91 1023.99 1024.07 1024.15 1024.23 1024.31 1024.41 1024.51 1024.62 1024.73 1024.80
1025.52 1025.51 1025.47 1025.41 1025.38 1025.39 1025.46 1025.58 1025.74 1025.91 1026.06 1026.17 1026.23 1026.24 1026.21 1026.16 1026.10 1026.05 1026.00 1025.97 1025.94 1025.90 1025.84 1025.75 1025.64 1025.51 1025.37 1025.24 1025.14 1025.06 1025.01 1024.98 1024.97 1024.97 1024.97 1024.98 1025.01 1025.05 1025.12 1025.21 1025.31 1025.42 1025.49
Thickness
5770 5770 5766 5766 5766 5765 5765 5765 5764 5763 5763 5762 5761 5760 5759 5758 5757 5757 5756 5756 5756 5756 5756 5756 5757 5757 5757 5758 5758 5759 5759 5760 5760 5761 5761 5762 5763 5763 5764 5764 5766 5767 5766
5771 5769 5765 5764 5764 5763 5763 5763 5762 5762 5761 5760 5759 5758 5757 5756 5756 5755 5755 5754 5754 5754 5754 5754 5754 5755 5755 5756 5757 5757 5757 5758 5758 5759 5760 5761 5761 5761 5762 5762 5763 5764 5764
5770 5767 5765 5763 5762 5761 5761 5761 5760 5760 5759 5759 5758 5757 5756 5755 5754 5753 5753 5752 5752 5752 5752 5752 5752 5753 5753 5754 5754 5755 5755 5755 5756 5758 5759 5761 5761 5759 5759 5759 5760 5760 5761
5768 5766 5764 5761 5760 5759 5759 5759 5758 5758 5757 5757 5756 5755 5754 5753 5752 5752 5751 5751 5750 5750 5750 5750 5750 5751 5751 5751 5751 5752 5752 5753 5754 5757 5760 5760 5759 5756 5757 5757 5757 5757 5758
5765 5764 5761 5759 5758 5757 5757 5756 5756 5755 5755 5754 5754 5753 5753 5752 5751 5750 5749 5749 5748 5748 5748 5748 5748 5748 5748 5748 5749 5749 5750 5751 5752 5755 5756 5756 5755 5753 5754 5754 5754 5754 5754
5763 5761 5759 5757 5756 5755 5755 5754 5753 5753 5752 5752 5751 5751 5750 5750 5749 5748 5747 5746 5746 5746 5746 5746 5745 5745 5746 5745 5746 5746 5747 5748 5752 5753 5753 5753 5752 5750 5751 5751 5751 5751 5752
5761 5759 5758 5754 5754 5753 5752 5752 5751 5750 5750 5749 5749 5748 5748 5747 5746 5745 5744 5744 5744 5744 5743 5743 5743 5743 5743 5743 5743 5743 5744 5746 5749 5749 5750 5749 5748 5747 5747 5747 5748 5748 5748
5759 5757 5756 5752 5751 5751 5750 5749 5748 5748 5747 5747 5746 5745 5745 5744 5743 5743 5742 5742 5741 5741 5741 5741 5740 5740 5740 5739 5739 5740 5741 5743 5747 5748 5747 5745 5743 5743 5743 5744 5744 5744 5745
5756 5755 5754 5753 5751 5749 5747 5746 5746 5745 5744 5743 5743 5742 5742 5742 5741 5740 5740 5739 5739 5738 5738 5738 5738 5737 5736 5736 5736 5736 5737 5740 5744 5744 5744 5741 5739 5739 5740 5740 5740 5741 5741
5753 5753 5753 5751 5750 5749 5747 5744 5743 5742 5741 5740 5740 5740 5739 5739 5738 5737 5737 5736 5736 5735 5735 5735 5734 5733 5733 5733 5733 5733 5735 5738 5740 5740 5739 5737 5735 5735 5736 5736 5736 5737 5737
5750 5751 5751 5749 5748 5747 5745 5742 5741 5739 5738 5738 5738 5737 5738 5739 5739 5737 5734 5733 5733 5732 5732 5731 5731 5730 5730 5730 5730 5731 5733 5736 5735 5735 5733 5731 5731 5732 5732 5732 5732 5733 5734
5747 5749 5749 5748 5746 5745 5743 5741 5739 5739 5737 5738 5737 5737 5737 5736 5735 5734 5730 5730 5729 5729 5729 5728 5728 5728 5730 5731 5729 5730 5732 5732 5732 5731 5728 5727 5727 5727 5728 5728 5728 5729 5729
5747 5746 5746 5746 5744 5742 5740 5739 5737 5736 5735 5736 5735 5735 5734 5734 5733 5732 5732 5730 5729 5729 5729 5727 5728 5728 5728 5727 5727 5728 5727 5728 5727 5726 5723 5722 5723 5723 5724 5724 5724 5725 5725
5744 5743 5744 5743 5742 5740 5738 5737 5735 5734 5734 5734 5734 5734 5733 5732 5731 5731 5731 5729 5728 5727 5725 5726 5725 5725 5725 5725 5725 5725 5723 5723 5722 5720 5717 5717 5718 5719 5719 5719 5719 5720 5720
5740 5740 5741 5740 5739 5738 5735 5733 5733 5732 5732 5732 5730 5731 5731 5730 5730 5729 5729 5726 5726 5725 5723 5722 5723 5722 5722 5721 5720 5720 5719 5718 5717 5716 5713 5712 5712 5713 5714 5714 5715 5715 5716
5739 5739 5739 5737 5736 5734 5733 5732 5731 5730 5729 5730 5729 5729 5728 5727 5727 5726 5726 5724 5723 5722 5721 5720 5719 5718 5717 5717 5716 5715 5715 5714 5713 5712 5710 5709 5707 5708 5709 5709 5710 5711 5711
5738 5738 5736 5735 5733 5732 5730 5729 5728 5727 5728 5728 5726 5726 5726 5725 5725 5724 5723 5722 5720 5719 5718 5717 5716 5715 5714 5713 5712 5711 5710 5709 5708 5708 5707 5706 5705 5703 5703 5704 5704 5705 5706
5736 5735 5734 5732 5731 5729 5727 5725 5725 5725 5725 5724 5723 5723 5723 5723 5722 5720 5719 5719 5716 5716 5715 5713 5713 5712 5711 5710 5709 5708 5707 5704 5705 5704 5704 5703 5702 5702 5699 5698 5698 5699 5700
5735 5733 5731 5731 5729 5727 5725 5723 5722 5722 5721 5721 5720 5720 5720 5719 5719 5718 5716 5715 5714 5713 5712 5711 5710 5710 5708 5705 5704 5703 5703 5701 5701 5700 5701 5700 5699 5698 5697 5695 5694 5694 5695
5734 5733 5731 5729 5727 5725 5723 5722 5720 5719 5719 5718 5717 5716 5716 5716 5715 5715 5713 5713 5711 5710 5709 5708 5706 5705 5704 5703 5703 5701 5700 5699 5698 5698 5698 5696 5695 5695 5694 5693 5693 5691 5690
5732 5731 5730 5727 5725 5723 5721 5719 5718 5717 5717 5716 5715 5714 5713 5712 5712 5711 5711 5710 5708 5707 5706 5706 5704 5702 5701 5701 5699 5697 5697 5697 5696 5694 5694 5693 5692 5691 5690 5690 5689 5689 5689
5730 5729 5728 5726 5724 5722 5719 5719 5717 5716 5715 5713 5711 5710 5710 5710 5709 5708 5708 5707 5705 5703 5702 5702 5700 5700 5699 5698 5697 5694 5691 5691 5690 5691 5690 5689 5689 5688 5687 5687 5686 5686 5685
5728 5727 5727 5726 5723 5721 5719 5717 5714 5712 5711 5710 5709 5708 5707 5707 5706 5705 5705 5705 5703 5702 5700 5698 5697 5695 5695 5695 5696 5693 5689 5686 5686 5687 5687 5686 5685 5684 5684 5683 5682 5682 5681
5728 5727 5726 5725 5723 5720 5717 5715 5712 5709 5708 5708 5708 5707 5706 5704 5703 5702 5702 5701 5701 5700 5698 5697 5696 5694 5692 5691 5691 5690 5691 5689 5684 5681 5682 5683 5681 5681 5680 5679 5678 5678 5677
5727 5725 5724 5723 5720 5718 5716 5712 5710 5709 5708 5708 5706 5705 5704 5703 5701 5700 5699 5699 5698 5697 5696 5694 5693 5692 5691 5690 5688 5687 5685 5684 5686 5681 5676 5677 5678 5678 5676 5675 5674 5673 5672
5724 5722 5721 5719 5716 5714 5712 5711 5709 5707 5705 5704 5702 5701 5701 5700 5698 5697 5697 5696 5696 5695 5694 5692 5691 5689 5688 5687 5686 5685 5683 5681 5680 5678 5676 5674 5673 5674 5673 5671 5670 5668 5667